Home   Weather   Jefferson City   Past weeks

Flag for USA Past Weather in Jefferson City, Missouri, USA — Yesterday and Last 2 Weeks

Now
51 °F

Clear.


Feels Like: 51 °F
Forecast: 53 / 76 °F
Wind: No wind

Location: Jefferson City Memorial Airport

Current Time: Sep 27, 2016 at 7:09:12 AM

Latest Report: Sep 27, 2016 at 5:53 AM


Visibility: 10 mi

Pressure: 30.01 "Hg

Humidity: 89%

Dew Point: 48 °F

Location of Jefferson CityLocation

Past Weather in Jefferson City — Graph

°F

Jefferson City Temperature Yesterday

Maximum temperature yesterday: 74 °F (at 3:53 PM)
Minimum temperature yesterday: 53 °F (at 11:53 PM)
Average temperature yesterday: 64 °F

High & Low Weather Summary for the Past Weeks

 TemperatureHumidityPressure
High92 °F (Sep 20, 2:53 PM)100% (Sep 15, 6:53 AM)30.21 "Hg (Sep 15, 6:53 AM)
Low50 °F (Sep 27, 1:53 AM)22% (Sep 26, 4:53 PM)29.89 "Hg (Sep 16, 1:53 PM)
Average73 °F78%30.01 "Hg
* Reported Sep 12 5:53 AM — Sep 27 5:53 AM, Jefferson City, Weather by CustomWeather, © 2016

Note: Actual official high and low records may vary slightly from our data, if they occured in-between our weather recording intervals... More about our weather records

Advertising

Jefferson City Weather History for the Previous 24 Hours

Scroll right to see more
 ConditionsComfort  
Time TempWeatherWind HumidityBarometerVisibility
5:53 AM
Tue, Sep 27
51 °FClear.No wind89%30.01 "Hg10 mi
4:53 AM52 °FClear.No wind83%30.02 "Hg10 mi
3:53 AM51 °FClear.3 mph86%30.03 "Hg10 mi
2:53 AM50 °FClear.No wind89%30.05 "Hg10 mi
1:53 AM50 °FClear.3 mph93%30.06 "Hg10 mi
12:53 AM51 °FClear.No wind89%30.07 "Hg10 mi
11:53 PM
Mon, Sep 26
53 °FClear.No wind86%30.08 "Hg10 mi
10:53 PM54 °FClear.No wind83%30.08 "Hg10 mi
9:53 PM55 °FClear.No wind83%30.09 "Hg10 mi
8:53 PM56 °FClear.No wind81%30.09 "Hg10 mi
7:53 PM60 °FClear.No wind65%30.08 "Hg10 mi
6:53 PM69 °FSunny.3 mph39%30.07 "Hg10 mi
5:53 PM73 °FSunny.9 mph28%30.08 "Hg10 mi
4:53 PM74 °FSunny.9 mph22%30.09 "Hg10 mi
3:53 PM74 °FSunny.8 mph23%30.10 "Hg10 mi
2:53 PM73 °FSunny.8 mph25%30.12 "Hg10 mi
1:53 PM73 °FSunny.8 mph28%30.14 "Hg10 mi
12:53 PM72 °FSunny.9 mph30%30.16 "Hg10 mi
11:53 AM69 °FSunny.10 mph30%30.18 "Hg10 mi
10:53 AM67 °FSunny.6 mph53%30.19 "Hg10 mi
9:53 AM63 °FSunny.6 mph63%30.19 "Hg10 mi
8:53 AM60 °FSunny.6 mph80%30.18 "Hg10 mi
7:53 AM57 °FSunny.3 mph90%30.17 "Hg10 mi
Weather by CustomWeather, © 2016

See weather overviewHow to use our weather pages